CAPE
22 26 10 11 8 4 0 15 4 4 3 25 44 76 112 184 179 184 96 54 74 91 29 0 11 22 1 112 164 157 70 4 19 31 0 0 0 0 0 2 30 34 216 554 1044
20 25 6 9 1 8 5 1 12 4 14 54 85 73 113 155 135 73 102 37 34 88 47 11 64 102 13 0 72 117 58 16 11 16 2 0 0 0 1 1 13 83 521 1041 971
17 22 15 25 7 7 6 4 5 6 9 71 107 89 95 71 44 3 37 73 33 34 9 10 71 70 133 0 31 48 1 29 125 99 54 10 1 0 0 13 10 0 346 1075 1190
13 22 20 8 22 13 7 3 4 2 0 16 116 87 12 46 0 0 8 18 20 7 0 35 20 56 12 0 7 26 7 31 137 56 30 42 49 0 2 0 0 7 436 924 1300
7 15 16 11 0 16 9 11 2 1 0 1 108 77 26 14 2 1 0 0 0 0 0 91 27 60 17 3 0 0 0 73 66 39 21 20 10 26 2 0 0 0 283 608 956
2 9 12 11 1 4 12 6 4 0 0 0 46 19 46 0 10 7 0 0 0 10 70 124 30 49 35 58 27 0 0 3 5 86 7 1 17 15 0 0 0 0 0 155 669
6 3 5 11 2 3 7 5 1 0 0 0 9 2 0 0 9 7 1 0 0 34 110 114 68 57 24 5 78 25 0 18 6 38 57 21 6 2 2 0 0 0 0 0 5
8 5 6 10 3 1 2 1 0 0 0 0 4 2 0 0 2 1 3 0 18 80 54 9 2 13 16 14 19 0 17 1 3 51 44 34 0 9 27 3 0 0 0 0 0
5 3 2 3 4 0 0 0 0 0 0 0 0 4 0 3 1 0 1 19 39 21 0 0 0 0 25 2 0 6 16 0 3 11 44 51 11 17 43 8 0 0 0 0 0
1 1 1 3 2 0 0 0 0 0 0 0 2 0 0 0 0 1 0 23 31 0 0 0 0 0 0 23 0 0 1 18 9 18 23 13 1 0 21 14 0 0 0 0 0
1 0 3 4 3 0 0 0 0 0 0 0 0 0 0 0 1 1 0 26 3 0 0 0 0 0 0 0 4 7 5 2 0 55 11 5 0 0 8 4 0 0 0 0 0
1 2 1 1 0 0 0 0 0 0 0 0 0 0 0 0 6 0 1 13 9 0 0 1 0 0 9 10 13 4 0 0 8 19 27 15 0 0 0 1 0 0 0 0 0
0 2 1 0 0 0 0 0 0 0 1 0 0 0 0 0 2 0 0 3 1 3 7 0 5 5 8 21 22 24 4 19 18 2 0 0 0 0 0 0 0 0 0 0 0
0 1 0 0 0 0 0 0 0 0 0 0 0 0 0 0 0 0 0 0 0 1 0 0 1 0 12 16 8 19 19 5 10 7 0 0 0 0 0 0 0 0 0 0 0
0 1 0 0 0 0 0 0 0 0 0 0 1 0 0 0 0 0 0 0 0 0 0 2 0 0 9 1 1 8 15 6 0 1 3 3 1 0 0 0 0 0 0 0 0
0 0 0 0 0 0 0 0 0 0 0 0 1 2 2 0 0 0 1 0 2 1 0 1 0 1 4 13 3 28 24 22 11 8 0 0 3 0 0 0 0 0 0 0 0
0 0 0 0 0 0 0 0 0 0 0 0 1 1 0 0 0 0 5 2 2 1 0 0 0 0 1 1 4 25 17 3 1 1 0 0 0 0 0 0 0 0 0 0 0
0 0 0 1 0 0 0 0 0 0 0 0 0 0 1 0 0 0 0 0 0 1 1 0 0 0 0 1 0 11 7 0 0 0 0 0 0 0 0 0 0 0 0 0 0
0 0 0 0 0 0 0 0 0 0 0 0 1 1 4 0 0 1 0 0 0 1 2 0 0 0 0 0 0 0 0 5 2 3 0 0 0 0 0 0 0 0 0 0 0
0 0 0 0 0 0 0 0 0 0 0 0 0 0 0 6 4 7 5 0 0 6 28 14 1 0 0 1 3 1 0 0 1 0 0 0 0 0 0 0 0 0 0 0 0
0 0 0 0 1 0 0 0 0 0 0 0 0 0 0 0 5 12 9 1 2 3 16 22 1 1 1 2 1 0 1 3 1 0 0 0 0 0 0 0 0 0 0 0 0
0 0 1 1 0 0 0 0 0 0 0 0 0 0 0 0 0 3 31 14 54 31 1 1 0 0 0 0 0 1 0 1 0 0 0 0 0 0 0 0 0 0 0 0 0
0 0 0 0 0 0 0 0 0 0 0 0 0 0 0 0 0 0 9 37 46 13 0 0 0 0 1 1 6 2 0 1 0 0 0 0 0 0 0 0 0 0 0 0 0
0 0 0 0 0 0 0 0 0 0 0 0 0 0 0 0 0 6 16 15 26 21 49 5 0 0 0 0 0 0 0 0 2 0 0 0 0 0 0 0 0 0 0 0 0
0 0 0 0 0 0 0 0 0 0 0 0 0 0 0 0 0 0 0 0 0 0 11 2 0 0 0 5 0 0 0 2 1 0 0 0 0 0 0 0 0 0 0 0 0
0 0 0 0 0 0 0 0 0 0 0 0 0 0 0 0 0 0 0 0 0 0 2 1 0 0 0 8 0 0 0 1 0 0 0 0 0 0 0 0 0 0 0 0 0
0 0 0 0 0 0 0 0 0 0 0 0 0 0 0 0 0 0 0 0 0 0 0 0 0 0 0 0 0 0 0 0 0 0 0 0 0 0 0 0 0 0 0 0 0
CIN
-0 -0 -0 -1 -0 -0 -0 -0 -0 -0 -0 -22 -20 -7 -3 -4 -18 -2 -0 -7 -20 -0 -3 -8 -38 -7 -3 -12 -14 -31 -3 -15 -14 -12 -0 -0 -0 -0 -0 -134 -211 -230 -160 -154 -70
-0 -0 -0 -0 -1 -0 -0 -0 -0 -0 -14 -14 -26 -15 -8 -17 -4 -1 -1 -7 -42 -4 -0 -14 -32 -8 -34 -13 -10 -4 -4 -43 -33 -66 -59 -0 -0 -0 -68 -96 -167 -161 -104 -60 -77
-0 -0 -0 -0 -0 -0 -0 -0 -0 -0 -12 -9 -26 -33 -28 -36 -0 -2 -0 -13 -18 -5 -9 -20 -42 -13 -1 -0 -3 -4 -4 -45 -44 -36 -45 -31 -3 -0 -0 -95 -164 -2 -136 -47 -32
-0 -0 -2 -0 -0 -0 -0 -0 -0 -0 -0 -33 -15 -48 -57 -10 -0 -0 -12 -28 -28 -28 -0 -3 -22 -6 -2 -0 -51 -9 -19 -77 -16 -87 -69 -33 -5 -0 -1 -0 -0 -244 -108 -52 -15
-0 -0 -0 -1 -0 -0 -0 -0 -0 -0 -0 -2 -22 -52 -51 -0 -1 -3 -0 -0 -0 -0 -0 -6 -2 -2 -1 -2 -0 -0 -0 -9 -50 -23 -48 -20 -16 -9 -16 -0 -0 -0 -112 -76 -31
-0 -1 -2 -2 -0 -0 -0 -0 -0 -0 -0 -0 -33 -79 -7 -0 -5 -10 -0 -0 -0 -4 -3 -14 -5 -32 -2 -3 -7 -0 -0 -44 -21 -13 -44 -2 -22 -10 -0 -0 -0 -0 -0 -147 -50
-0 -0 -1 -2 -0 -0 -0 -0 -0 -0 -0 -0 -41 -20 -0 -0 -7 -0 -1 -0 -0 -12 -1 -28 -31 -25 -23 -3 -4 -43 -0 -1 -4 -6 -11 -36 -5 -21 -15 -0 -0 -0 -0 -0 -213
-2 -0 -0 -1 -0 -0 -0 -0 -0 -0 -0 -0 -15 -8 -0 -0 -8 -0 -9 -0 -12 -1 -20 -52 -75 -56 -49 -8 -7 -0 -1 -0 -11 -10 -12 -3 -0 -30 -34 -4 -0 -0 -0 -0 -0
-1 -0 -0 -0 -0 -0 -0 -0 -0 -0 -0 -0 -0 -1 -0 -1 -1 -0 -6 -2 -14 -41 -0 -0 -0 -0 -32 -11 -0 -3 -7 -0 -0 -3 -10 -7 -11 -5 -32 -19 -0 -0 -0 -0 -0
-1 -0 -0 -0 -0 -0 -0 -0 -0 -0 -0 -0 -2 -0 -0 -0 -0 -1 -0 -4 -6 -0 -0 -0 -0 -0 -0 -4 -0 -0 -4 -2 -9 -9 -7 -12 -3 -0 -7 -10 -0 -0 -0 -0 -0
-0 -0 -0 -1 -0 -0 -0 -0 -0 -0 -0 -0 -0 -0 -0 -0 -0 -8 -0 -1 -11 -0 -0 -0 -0 -0 -0 -0 -5 -2 -2 -16 -7 -36 -12 -4 -0 -0 -27 -21 -0 -0 -0 -0 -0
-0 -0 -0 -1 -0 -0 -0 -0 -0 -0 -0 -0 -0 -0 -0 -1 -0 -0 -9 -1 -1 -0 -1 -0 -0 -0 -9 -10 -1 -2 -0 -0 -33 -21 -26 -1 -0 -0 -3 -2 -0 -0 -0 -0 -0
-0 -0 -0 -0 -0 -0 -0 -0 -0 -0 -1 -0 -0 -0 -0 -0 -1 -2 -0 -2 -2 -3 -0 -0 -8 -15 -8 -2 -2 -4 -8 -7 -11 -0 -2 -0 -0 -0 -0 -0 -0 -0 -0 -0 -0
-0 -0 -0 -0 -0 -0 -0 -0 -0 -0 -0 -0 -0 -0 -0 -0 -0 -0 -0 -1 -4 -1 -0 -0 -1 -0 -5 -2 -5 -6 -9 -25 -19 -17 -0 -0 -0 -0 -0 -0 -0 -0 -0 -0 -0
-0 -0 -0 -0 -0 -0 -0 -0 -0 -0 -0 -0 -0 -0 -0 -0 -0 -0 -0 -0 -0 -0 -0 -1 -0 -0 -3 -3 -14 -2 -3 -44 -18 -8 -8 -3 -1 -0 -0 -0 -0 -0 -0 -0 -0
-0 -0 -0 -0 -1 -0 -0 -0 -0 -0 -0 -0 -0 -0 -1 -0 -0 -0 -1 -0 -6 -0 -0 -1 -0 -5 -14 -8 -2 -1 -6 -6 -8 -15 -0 -0 -2 -0 -0 -0 -0 -0 -0 -0 -0
-0 -0 -0 -1 -0 -0 -0 -0 -0 -0 -0 -0 -0 -0 -0 -0 -0 -0 -1 -0 -0 -0 -0 -0 -0 -0 -36 -7 -8 -5 -4 -6 -2 -2 -0 -0 -0 -0 -0 -0 -0 -0 -0 -0 -0
-0 -0 -0 -0 -0 -0 -0 -0 -0 -0 -0 -0 -0 -0 -3 -0 -0 -0 -0 -0 -0 -0 -0 -0 -0 -0 -0 -3 -0 -15 -4 -0 -0 -0 -0 -0 -0 -0 -0 -0 -0 -0 -0 -0 -0
-0 -0 -0 -0 -0 -0 -0 -0 -0 -0 -0 -0 -2 -0 -4 -3 -0 -0 -0 -0 -0 -5 -2 -0 -0 -0 -0 -7 -0 -0 -0 -13 -8 -11 -0 -0 -0 -0 -0 -0 -0 -0 -0 -0 -0
-0 -0 -2 -0 -0 -0 -0 -0 -0 -0 -0 -0 -0 -0 -0 -6 -7 -1 -4 -0 -0 -2 -0 -2 -1 -1 -1 -12 -3 -9 -0 -0 -8 -0 -0 -0 -0 -0 -0 -0 -0 -0 -0 -0 -0
-0 -0 -0 -0 -0 -0 -0 -0 -0 -0 -0 -0 -0 -0 -0 -0 -9 -4 -7 -0 -8 -4 -0 -9 -0 -0 -2 -0 -0 -2 -7 -12 -1 -0 -0 -0 -4 -0 -0 -0 -0 -0 -0 -0 -0
-0 -0 -0 -1 -0 -0 -0 -0 -0 -0 -0 -0 -0 -0 -0 -0 -0 -0 -3 -8 -11 -1 -13 -2 -0 -0 -0 -0 -0 -4 -3 -0 -0 -0 -0 -0 -0 -0 -0 -0 -0 -0 -0 -0 -0
-0 -0 -0 -0 -0 -0 -0 -0 -0 -0 -0 -0 -0 -0 -0 -0 -0 -0 -4 -2 -4 -11 -0 -0 -0 -0 -1 -1 -0 -0 -0 -0 -0 -0 -0 -0 -0 -0 -0 -0 -0 -0 -0 -0 -0
-0 -0 -0 -0 -0 -0 -0 -0 -0 -0 -0 -0 -0 -0 -0 -0 -0 -0 -0 -15 -13 -5 -8 -8 -0 -0 -0 -0 -0 -0 -0 -0 -0 -0 -0 -0 -0 -0 -0 -0 -0 -0 -0 -0 -0
-0 -0 -0 -0 -0 -0 -0 -0 -0 -0 -0 -0 -0 -0 -0 -0 -0 -0 -0 -0 -0 -0 -2 -6 -0 -0 -0 -2 -2 -0 -0 -2 -0 -0 -0 -0 -0 -0 -0 -0 -0 -0 -0 -0 -0
-0 -0 -0 -0 -0 -0 -0 -0 -0 -0 -0 -0 -0 -0 -0 -0 -0 -0 -0 -0 -0 -0 -32 -0 -0 -0 -0 -5 -0 -0 -0 -1 -0 -0 -0 -0 -0 -0 -0 -0 -0 -0 -0 -0 -0
-0 -0 -0 -0 -0 -0 -0 -0 -0 -0 -0 -0 -0 -0 -0 -0 -0 -0 -0 -0 -0 -0 -0 -0 -0 -0 -0 -0 -0 -0 -0 -0 -0 -0 -0 -0 -0 -0 -0 -0 -0 -0 -0 -0 -0
Wind_Speed
27 27 28 27 26 26 24 24 25 25 26 26 23 21 18 23 22 21 22 23 25 22 21 29 29 31 28 30 36 29 39 43 43 34 29 19 22 20 16 17 15 18 16 12 10
27 27 27 25 25 25 23 23 24 24 25 25 22 21 17 19 16 16 19 23 28 24 20 25 30 29 31 35 35 35 39 40 35 25 29 21 21 21 20 19 17 16 14 12 11
27 27 26 24 23 22 22 23 22 23 23 24 22 20 13 15 17 17 19 21 25 24 23 26 30 32 33 37 27 33 40 34 29 17 19 21 22 21 19 21 18 20 16 16 13
26 26 25 21 21 20 20 21 22 22 21 22 21 18 7 13 17 18 18 19 24 26 27 21 27 33 37 42 37 30 40 36 17 22 23 25 18 21 23 19 14 12 12 16 16
25 25 23 20 18 18 19 20 21 20 20 20 20 17 10 19 18 16 16 16 21 26 32 27 23 25 33 34 37 41 33 35 30 18 20 28 21 21 16 15 14 14 11 13 16
25 25 22 19 17 15 17 19 20 20 20 19 19 17 13 19 14 13 13 16 18 25 28 26 20 21 27 32 32 38 38 35 33 26 28 24 17 21 18 17 17 16 14 12 16
24 24 21 17 16 14 15 17 18 19 19 18 18 18 22 18 12 12 13 18 19 17 24 16 16 18 22 27 29 23 38 40 28 35 24 29 30 25 20 19 21 20 16 13 15
24 23 20 16 14 12 13 15 17 17 18 17 18 18 22 8 10 9 10 16 17 12 13 16 16 19 22 22 25 31 26 36 34 28 31 30 38 29 30 23 26 25 22 19 15
23 20 19 15 13 11 11 13 16 16 15 17 20 20 25 10 8 10 11 13 10 10 11 15 16 19 21 28 34 34 28 32 28 30 27 30 31 31 26 32 29 30 29 24 20
22 19 19 15 13 11 10 10 14 17 16 16 20 25 24 20 8 9 12 12 9 9 14 17 19 22 23 28 42 42 42 33 33 26 30 30 34 32 27 26 30 30 33 34 25
23 19 17 14 13 11 12 16 20 26 31 31 28 27 21 16 10 8 13 8 9 9 16 17 20 26 27 29 27 31 37 36 34 26 27 34 30 29 31 25 32 35 36 36 35
22 17 16 14 13 12 13 20 23 23 29 27 25 25 22 18 23 9 11 15 12 10 10 17 20 23 25 30 29 28 33 37 15 21 22 26 30 33 36 34 28 33 35 36 33
21 16 15 14 14 14 17 20 17 19 25 26 23 24 21 20 21 21 15 15 14 10 11 14 17 22 24 26 25 28 31 28 28 24 23 29 35 37 34 37 35 30 31 34 34
20 15 15 15 17 17 18 17 16 17 27 26 23 21 19 18 20 18 16 8 9 2 8 16 18 19 20 26 27 26 23 20 26 27 34 25 39 31 34 34 33 35 34 34 35
18 14 14 14 17 17 18 17 17 17 31 21 21 18 18 19 19 17 15 9 11 3 8 9 19 18 23 23 25 26 21 20 23 28 31 30 35 35 24 31 33 32 34 33 33
16 13 14 16 16 18 18 19 18 23 29 22 18 18 17 17 15 15 14 13 9 2 8 13 19 20 23 24 21 19 22 21 22 26 33 30 33 33 32 29 27 28 30 31 32
12 11 13 16 17 17 18 18 22 27 19 21 20 17 16 15 14 12 12 12 13 14 10 13 14 17 18 21 18 21 20 24 30 31 35 24 30 40 25 23 22 22 22 26 26
9 11 13 16 17 17 17 19 25 21 20 17 18 16 17 16 15 11 8 6 12 13 7 8 23 10 16 22 20 23 23 23 30 32 31 27 31 33 26 26 24 24 23 24 24
8 11 13 13 15 15 16 22 21 19 18 18 18 18 18 15 14 12 5 1 7 15 7 3 24 17 21 22 22 22 24 24 26 26 27 24 27 29 31 20 22 24 23 22 22
8 10 12 12 14 14 17 18 18 17 16 17 18 17 20 16 16 14 12 9 4 15 11 18 22 23 20 18 21 22 21 25 24 26 29 27 30 26 21 20 17 16 17 18 18
10 11 11 13 13 13 17 17 16 14 14 15 16 15 15 13 13 14 12 11 5 7 6 14 22 20 17 23 21 19 23 24 24 27 29 31 25 23 15 9 12 14 15 17 19
10 11 8 10 13 14 15 15 14 13 12 12 12 11 12 13 14 12 11 7 10 4 9 12 21 25 23 19 25 27 23 20 25 24 28 27 27 16 11 12 13 12 12 13 15
7 9 9 9 13 13 16 15 13 12 12 14 14 13 13 15 19 14 16 14 10 4 3 5 16 22 22 24 21 28 32 29 27 28 31 28 28 16 17 18 19 18 17 16 16
7 8 9 8 13 15 15 15 16 12 11 11 11 12 13 13 11 14 13 16 14 5 6 23 24 31 38 23 19 27 28 24 20 29 27 29 24 23 19 21 20 22 25 22 20
6 8 7 9 9 12 16 17 16 16 14 14 17 13 18 19 17 14 16 17 13 13 0 6 9 34 40 33 30 26 29 21 21 26 30 32 37 38 38 36 30 27 27 27 24
10 9 8 11 12 12 14 16 16 16 16 17 15 18 19 19 16 18 19 18 13 9 7 11 12 29 35 28 28 33 33 27 24 23 42 42 45 31 36 38 40 38 37 35 29
18 16 9 9 11 13 15 18 20 19 17 15 19 20 19 17 17 14 14 13 10 7 3 3 17 24 24 20 25 30 32 34 29 28 30 36 38 29 30 32 33 33 31 32 31
Wind_Direction
12 15 15 19 21 22 26 26 26 24 21 21 24 25 27 291 277 266 256 247 235 254 250 242 237 227 221 225 226 231 228 226 227 231 231 235 243 251 257 248 253 253 256 252 248
13 15 16 20 22 24 27 27 27 26 24 24 29 31 38 282 242 278 266 254 236 251 247 232 226 218 220 220 226 225 226 226 229 254 231 235 242 241 245 248 248 250 259 256 247
12 15 16 21 24 26 28 29 28 27 26 26 30 34 56 258 276 275 277 258 237 244 247 239 224 223 221 222 226 225 225 228 237 250 242 238 240 240 239 244 247 248 250 251 243
12 14 18 23 26 28 30 30 31 29 29 29 31 37 242 253 38 268 272 250 237 238 234 220 235 224 219 219 223 228 227 229 250 242 238 244 246 242 251 244 249 262 254 249 244
12 15 20 25 28 31 32 33 32 32 33 32 34 43 86 44 337 273 264 242 241 236 220 217 218 221 221 223 226 229 229 235 242 238 234 244 250 243 240 240 248 257 259 252 247
12 15 21 28 32 34 35 37 36 37 38 38 39 48 69 61 281 267 249 242 236 232 222 224 234 234 226 222 222 227 228 240 241 244 235 244 248 252 237 242 249 255 258 259 252
12 15 22 30 36 39 40 42 41 44 45 46 49 59 66 89 273 254 246 221 236 236 224 237 247 227 232 226 226 229 227 238 234 238 243 248 253 247 252 244 247 251 258 262 262
12 15 24 33 40 46 47 49 46 51 53 58 60 69 82 214 243 264 243 215 219 248 239 246 253 239 231 238 227 220 235 233 242 244 242 243 247 251 251 249 249 249 252 258 262
12 20 26 37 44 53 55 59 57 61 65 67 68 79 87 171 267 261 248 210 216 245 253 243 246 243 238 227 223 227 235 228 246 249 242 244 250 253 251 250 249 250 251 253 256
14 23 27 40 50 61 63 73 70 61 72 79 72 83 89 96 198 223 248 233 246 247 236 235 243 238 236 228 221 226 229 234 239 249 244 245 252 257 262 249 247 250 253 254 255
8 22 31 44 56 67 68 73 63 60 60 64 70 84 93 118 203 215 201 237 244 250 234 237 236 235 234 234 241 238 235 239 244 243 250 247 255 259 256 254 252 252 254 255 257
9 27 37 50 63 77 83 68 70 73 59 69 78 85 97 111 97 212 205 211 221 240 244 223 238 234 240 235 243 242 237 239 258 251 253 258 256 258 256 255 257 256 254 255 258
7 31 40 58 69 79 74 74 91 83 64 68 79 82 96 102 101 117 211 218 228 242 250 232 251 253 246 241 243 243 241 245 251 257 265 267 262 258 259 259 260 258 257 256 258
5 33 44 62 60 69 71 84 95 89 57 60 72 82 94 106 97 130 212 256 268 29 268 257 266 253 252 240 240 244 255 252 257 259 259 264 259 261 262 259 259 258 256 256 257
3 38 52 64 49 64 70 94 97 86 43 62 72 94 93 84 105 113 88 43 103 71 299 301 273 260 251 251 248 250 255 257 260 259 265 264 261 261 278 261 260 258 257 258 258
359 36 57 53 55 57 82 89 87 57 45 60 73 75 83 80 90 113 122 103 334 85 299 298 279 259 251 257 255 261 255 256 261 267 262 265 261 261 266 272 269 262 259 259 258
7 48 50 46 41 77 85 78 53 44 66 58 61 72 69 70 73 99 117 122 122 143 160 289 296 277 269 261 264 253 248 255 257 259 260 276 263 253 276 279 273 269 270 266 261
35 54 44 38 52 79 86 60 43 55 62 70 65 64 60 68 62 77 80 134 170 166 152 248 274 275 269 259 263 250 249 255 257 259 267 265 266 260 273 276 281 275 273 276 275
54 28 32 48 56 78 66 43 49 56 65 62 60 52 51 57 52 54 59 147 181 184 171 245 271 276 272 257 262 258 255 261 269 269 269 269 275 278 268 279 283 274 274 277 280
342 5 25 65 63 72 46 44 51 61 63 60 48 51 36 43 40 44 39 38 194 191 270 289 284 271 269 271 265 267 262 257 261 264 264 269 271 271 285 271 280 284 285 283 286
315 345 19 73 69 50 29 41 52 63 63 55 44 37 30 27 27 30 27 17 59 164 202 288 281 276 272 257 257 257 258 261 268 266 268 269 278 291 284 289 293 299 299 293 293
311 334 23 61 14 20 20 38 47 53 64 49 43 34 23 15 10 4 9 7 35 55 181 260 283 267 267 275 262 258 257 258 262 271 268 274 273 296 299 298 296 300 304 306 307
322 346 344 14 15 18 18 29 43 47 50 42 37 36 30 18 14 19 22 29 24 51 110 255 258 272 269 268 268 258 252 257 266 275 265 267 267 286 291 290 284 284 293 299 304
316 339 349 1 353 7 20 24 22 45 36 39 28 21 12 11 7 6 3 23 16 4 195 281 277 260 254 269 270 260 259 257 259 263 268 262 271 271 288 286 286 285 279 291 298
316 327 357 8 19 19 13 16 21 21 34 35 26 26 20 14 10 359 360 357 358 6 59 288 289 267 257 264 266 271 268 258 252 261 262 264 262 263 269 271 282 288 284 282 296
284 315 342 348 4 20 21 23 24 26 25 24 18 17 16 11 8 357 3 3 7 19 60 342 279 274 266 261 266 267 260 268 265 263 260 260 250 282 272 272 271 274 276 279 288
258 283 330 355 6 10 9 11 15 19 27 27 20 16 13 18 19 11 8 4 13 30 53 43 300 279 270 271 267 269 262 263 269 268 269 266 267 287 283 278 280 282 287 285 286